This demonstration page uses our WeatherBlox Daily Observations layout. Learn more.

Hourly Observations for February 15, 2021

Temp ( °F °C ) Dew Point ( °F °C ) Humidity (%) Winds ( mph kmh ) Pressure ( in mb ) Visibility ( mi km ) Precip ( " mm )
12:15 am 00:15 Cloudy 32 0 30 -1 93 93 NNE 5 7 30.25 1024 10 16.0934 0 0
12:35 am 00:35 Cloudy 32 0 30 -1 93 93 NNE 7 11 30.24 1024 10 16.0934 0 0
12:55 am 00:55 Cloudy 32 0 30 -1 93 93 N 7 11 30.24 1024 10 16.0934 0 0
1:15 am 01:15 Cloudy 32 0 28 -2 87 87 NNE 7 11 30.24 1024 10 16.0934 0 0
1:35 am 01:35 Cloudy with Light Wintry Mix 32 0 28 -2 87 87 NNE 3 6 30.23 1024 10 16.0934 0 0
1:55 am 01:55 Cloudy 32 0 30 -1 93 93 NNE 7 11 30.23 1024 10 16.0934 0 0
2:15 am 02:15 Cloudy 32 0 28 -2 87 87 N 7 11 30.23 1024 10 16.0934 0 0
2:35 am 02:35 Cloudy 32 0 28 -2 87 87 NNE 6 9 30.22 1023 10 16.0934 0 0
2:55 am 02:55 Cloudy 32 0 28 -2 87 87 NNE 7 11 30.22 1023 10 16.0934 0 0
3:15 am 03:15 Cloudy 32 0 28 -2 87 87 N 5 7 30.21 1023 10 16.0934 0 0
3:35 am 03:35 Cloudy 32 0 28 -2 87 87 N 7 11 30.21 1023 10 16.0934 0 0
3:55 am 03:55 Cloudy 32 0 28 -2 87 87 NNE 5 7 30.21 1023 10 16.0934 0 0
4:15 am 04:15 Cloudy 32 0 28 -2 87 87 NE 7 11 30.19 1022 10 16.0934 0 0
4:35 am 04:35 Cloudy 32 0 28 -2 87 87 NNE 8 13 30.19 1022 10 16.0934 0 0
4:55 am 04:55 Cloudy 32 0 28 -2 87 87 NNE 3 6 30.2 1023 10 16.0934 0 0
5:15 am 05:15 Cloudy 32 0 28 -2 87 87 NNE 5 7 30.21 1023 10 16.0934 0 0
5:35 am 05:35 Cloudy 32 0 28 -2 87 87 NE 5 7 30.2 1023 10 16.0934 0 0
5:55 am 05:55 Cloudy 32 0 28 -2 87 87 NNE 5 7 30.2 1023 10 16.0934 0 0
6:15 am 06:15 Cloudy 32 0 28 -2 87 87 NNE 6 9 30.21 1023 10 16.0934 0 0
6:35 am 06:35 Cloudy 32 0 28 -2 87 87 NNE 3 6 30.21 1023 10 16.0934 0 0
6:55 am 06:55 Cloudy 32 0 28 -2 87 87 NNE 5 7 30.21 1023 10 16.0934 0 0
7:15 am 07:15 Cloudy 32 0 28 -2 87 87 NNE 6 9 30.21 1023 10 16.0934 0 0
7:35 am 07:35 Cloudy 32 0 28 -2 87 87 NNE 6 9 30.22 1023 10 16.0934 0 0
7:55 am 07:55 Cloudy 32 0 28 -2 87 87 N 7 11 30.23 1024 10 16.0934 0 0
8:15 am 08:15 Cloudy 32 0 28 -2 87 87 N 6 9 30.25 1024 10 16.0934 0 0
8:35 am 08:35 Cloudy with Light Wintry Mix 32 0 28 -2 87 87 NNE 5 7 30.25 1024 7 11.26538 0 0
8:55 am 08:55 Cloudy with Light Wintry Mix 32 0 30 -1 93 93 NNE 5 7 30.23 1024 4 6.43736 0 0
9:15 am 09:15 Cloudy 32 0 32 0 100 100 NE 3 6 30.23 1024 7 11.26538 0 0
9:35 am 09:35 Cloudy 32 0 32 0 100 100 N 5 7 30.23 1024 7 11.26538 0 0
9:55 am 09:55 Cloudy 32 0 32 0 100 100 NNE 5 7 30.23 1024 7 11.26538 0 0
10:15 am 10:15 Cloudy with Mist and Fog 32 0 32 0 100 100 N 5 7 30.23 1024 4 6.43736 0 0
10:35 am 10:35 Cloudy with Mist and Fog 32 0 32 0 100 100 N 6 9 30.23 1024 5 8.0467 0 0
10:55 am 10:55 Cloudy with Mist and Fog 32 0 32 0 100 100 NNE 5 7 30.23 1024 3 4.82802 0 0
11:35 am 11:35 Cloudy with Mist and Fog 32 0 32 0 100 100 NE 6 9 30.22 1023 5 8.0467 0.01 0.254
11:55 am 11:55 Cloudy 32 0 32 0 100 100 NNE 5 7 30.22 1023 7 11.26538 0.01 0.254
12:15 pm 12:15 Cloudy 32 0 32 0 100 100 NE 7 11 30.2 1023 7 11.26538 0.01 0.254
12:35 pm 12:35 Cloudy 32 0 32 0 100 100 NE 5 7 30.19 1022 7 11.26538 0.02 0.508
12:55 pm 12:55 Cloudy 34 1 32 0 93 93 NE 6 9 30.17 1022 7 11.26538 0.03 0.762
1:15 pm 13:15 Cloudy 34 1 32 0 93 93 Calm 30.16 1021 7 11.26538 0.01 0.254
1:35 pm 13:35 Cloudy 32 0 32 0 100 100 Calm 30.16 1021 7 11.26538 0.01 0.254
1:55 pm 13:55 Cloudy 32 0 32 0 100 100 NE 5 7 30.15 1021 7 11.26538 0.01 0.254
2:15 pm 14:15 Cloudy with Mist and Fog 32 0 32 0 100 100 NE 3 6 30.15 1021 5 8.0467 0.01 0.254
2:35 pm 14:35 Cloudy with Mist and Fog 32 0 32 0 100 100 Calm 30.13 1020 5 8.0467 0.01 0.254
2:55 pm 14:55 Cloudy with Light Rain 34 1 32 0 93 93 Calm 30.14 1021 4 6.43736 0.02 0.508
3:15 pm 15:15 Cloudy with Light Rain 32 0 32 0 100 100 N 3 6 30.15 1021 2.5 4.02335 0 0
3:35 pm 15:35 Cloudy with Light Wintry Mix 32 0 32 0 100 100 N 5 7 30.15 1021 1.25 2.011675 0.01 0.254
3:55 pm 15:55 Cloudy with Light Wintry Mix 32 0 32 0 100 100 NNE 3 6 30.14 1021 1 1.60934 0.02 0.508
4:15 pm 16:15 Cloudy with Light Wintry Mix 32 0 32 0 100 100 NE 3 6 30.14 1021 1 1.60934 0.01 0.254
4:35 pm 16:35 Cloudy with Light Wintry Mix 32 0 32 0 100 100 NE 7 11 30.12 1020 1.25 2.011675 0.01 0.254
4:55 pm 16:55 Cloudy with Mist and Fog 32 0 32 0 100 100 NE 6 9 30.12 1020 1.5 2.41401 0.02 0.508
5:15 pm 17:15 Cloudy with Mist and Fog 32 0 32 0 100 100 NE 6 9 30.1 1019 1 1.60934 0 0
5:35 pm 17:35 Cloudy with Mist and Fog 32 0 32 0 100 100 NE 6 9 30.1 1019 1.25 2.011675 0 0
5:55 pm 17:55 Cloudy with Light Wintry Mix 32 0 32 0 100 100 NE 3 6 30.09 1019 1.75 2.816345 0.01 0.254
6:15 pm 18:15 Cloudy with Light Wintry Mix 32 0 32 0 100 100 ENE 6 9 30.08 1019 1.75 2.816345 0 0
6:35 pm 18:35 Cloudy with Mist and Fog 32 0 32 0 100 100 ENE 5 7 30.08 1019 2 3.21868 0 0
6:55 pm 18:55 Cloudy with Light Wintry Mix 32 0 32 0 100 100 ENE 7 11 30.07 1018 1.25 2.011675 0 0
7:15 pm 19:15 Cloudy with Mist and Fog 32 0 32 0 100 100 E 6 9 30.07 1018 1.5 2.41401 0.01 0.254
7:35 pm 19:35 Cloudy with Mist and Fog 32 0 32 0 100 100 ENE 5 7 30.05 1018 1.5 2.41401 0.01 0.254
7:55 pm 19:55 Cloudy with Mist and Fog 32 0 32 0 100 100 E 6 9 30.04 1017 1.25 2.011675 0.01 0.254
8:15 pm 20:15 Cloudy with Light Wintry Mix 32 0 32 0 100 100 E 6 9 30.03 1017 1 1.60934 0.01 0.254
8:35 pm 20:35 Cloudy with Light Wintry Mix 32 0 32 0 100 100 E 3 6 30.03 1017 1.25 2.011675 0.01 0.254
8:55 pm 20:55 Cloudy with Light Wintry Mix 32 0 32 0 100 100 ESE 6 9 30.02 1017 1 1.60934 0.02 0.508
9:15 pm 21:15 Cloudy with Light Wintry Mix 32 0 32 0 100 100 ESE 9 15 29.99 1016 2 3.21868 0.01 0.254
9:35 pm 21:35 Cloudy with Light Wintry Mix 32 0 32 0 100 100 ESE 5 7 29.96 1015 1.5 2.41401 0.02 0.508
9:55 pm 21:55 Cloudy with Light Wintry Mix 32 0 32 0 100 100 SSE 3 6 29.99 1016 2.5 4.02335 0.04 1.016
10:15 pm 22:15 Cloudy with Light Snow 32 0 32 0 100 100 SSE 6 9 29.98 1015 1.75 2.816345 0.07 1.778
10:35 pm 22:35 Cloudy with Light Snow 32 0 32 0 100 100 Calm 29.97 1015 1.5 2.41401 0.19 4.826
10:55 pm 22:55 Cloudy with Light Snow 32 0 32 0 100 100 SSW 3 6 29.97 1015 2 3.21868 0.27 6.858
11:15 pm 23:15 Cloudy with Light Snow 32 0 32 0 100 100 E 5 7 29.9 1013 2.5 4.02335 0.03 0.762
11:35 pm 23:35 Cloudy with Light Wintry Mix 32 0 32 0 100 100 Calm 29.9 1013 3 4.82802 0.04 1.016
11:55 pm 23:55 Cloudy with Light Wintry Mix 32 0 32 0 100 100 ESE 7 11 29.87 1012 4 6.43736 0.05 1.27

Powered by AerisWeather